Location: 81360 Arifat, France
(43.7204°N, 2.3408°E)
Time: 14:55:09
(UTC+02:00)

Tiangong - Visible Passes

Search period start: 14 May 2025 00:00
Search period end: 24 May 2025 00:00
Orbit: 378 x 387 km, 41.5° (Epoch: 13 May)

Date Brightness Start Highest point End Pass type
(mag) Time Alt. Az. Time Alt. Az. Time Alt. Az.
14 May -0.7 05:24:37 14° SSW 05:26:38 26° SSE 05:29:21 10° E visible
15 May -0.1 04:26:49 17° SE 04:26:49 17° SE 04:28:35 10° ESE visible
16 May -1.3 05:01:06 25° SSW 05:02:21 36° SSE 05:05:18 10° E visible
17 May -0.1 04:03:10 20° ESE 04:03:10 20° ESE 04:04:37 10° E visible
17 May -1.9 05:35:18 10° WSW 05:38:25 54° S 05:41:32 10° E visible
18 May -1.8 04:37:20 41° SSW 04:37:52 46° S 04:40:56 10° E visible
19 May 0.2 03:39:20 17° ESE 03:39:20 17° ESE 03:40:14 10° E visible
19 May -2.0 05:11:29 16° WSW 05:13:52 57° S 05:16:59 10° E visible
20 May -1.9 04:13:28 52° SSE 04:13:28 52° SSE 04:16:19 10° E visible
20 May -1.7 05:46:45 10° W 05:49:48 44° SSW 05:52:50 10° ESE visible
21 May 0.8 03:15:29 10° E 03:15:29 10° E 03:15:33 10° E visible
21 May -2.0 04:47:37 26° WSW 04:49:06 53° S 04:52:11 10° ESE visible
22 May -0.6 03:49:44 28° ESE 03:49:44 28° ESE 03:51:27 10° E visible
22 May -1.4 05:21:58 10° W 05:24:52 34° SSW 05:27:46 10° SE visible
23 May -1.9 04:24:10 45° S 04:24:10 45° S 04:27:08 10° ESE visible
